This is the latest recevied weather packets stored in our database for station/object OM2RC-6. If no packets are shown the sender has not sent any weather packets the latest 10 day(s).
| Time | Temp. | Humidity | Pressure | Rain* | Wind** | Luminosity | Snow |
|---|---|---|---|---|---|---|---|
| 1777898205 | 24.44° C | 39% | 1015.7 hPa | - | - | - | - |
| 1777897886 | 23.89° C | 40% | 1015.7 hPa | - | - | - | - |
| 1777897566 | 23.89° C | 40% | 1015.9 hPa | - | - | - | - |
| 1777897247 | 24.44° C | 40% | 1015.8 hPa | - | - | - | - |
| 1777896928 | 24.44° C | 40% | 1016 hPa | - | - | - | - |
| 1777896609 | 23.89° C | 40% | 1016 hPa | - | - | - | - |
| 1777896290 | 24.44° C | 41% | 1016.1 hPa | - | - | - | - |
| 1777895971 | 23.89° C | 41% | 1016 hPa | - | - | - | - |
| 1777895652 | 24.44° C | 42% | 1016.2 hPa | - | - | - | - |
| 1777895333 | 23.89° C | 42% | 1016.3 hPa | - | - | - | - |
| 1777895014 | 24.44° C | 43% | 1016.3 hPa | - | - | - | - |
| 1777894695 | 23.89° C | 43% | 1016.4 hPa | - | - | - | - |
| 1777894436 | 22.78° C | 44% | 1016.4 hPa | - | - | - | - |
| 1777894057 | 23.89° C | 44% | 1016.4 hPa | - | - | - | - |
| 1777893744 | 23.33° C | 43% | 1016.4 hPa | - | - | - | - |
| 1777893421 | 23.33° C | 43% | 1016.3 hPa | - | - | - | - |
| 1777893099 | 23.89° C | 44% | 1016.3 hPa | - | - | - | - |
| 1777892780 | 23.33° C | 44% | 1016.3 hPa | - | - | - | - |
| 1777892461 | 22.78° C | 45% | 1016.3 hPa | - | - | - | - |
| 1777892142 | 22.78° C | 45% | 1016.5 hPa | - | - | - | - |
| 1777891823 | 22.78° C | 44% | 1016.5 hPa | - | - | - | - |
| 1777891504 | 22.78° C | 45% | 1016.6 hPa | - | - | - | - |
| 1777891185 | 22.78° C | 45% | 1016.6 hPa | - | - | - | - |
| 1777890866 | 22.22° C | 46% | 1016.7 hPa | - | - | - | - |
| 1777890547 | 22.22° C | 45% | 1016.9 hPa | - | - | - | - |
* Rain since midnight (hover to see other rain measurements)
** Current wind speed in m/s (hover to see current wind gust speed)